{"data":{"norad_id":53566,"epoch":"2026-05-25T04:27:18.108000Z","epoch_age_seconds":65902,"freshness":"FRESH","line1":"1 53566U 22101AR  26145.18562625  .00000318  00000+0  38082-4 0  9990","line2":"2 53566  53.2124  70.7046 0001365  67.4670 292.6467 15.08839251208685","mean_motion":15.08839251,"eccentricity":0.0001365,"inclination_deg":53.2124,"raan_deg":70.7046,"arg_perigee_deg":67.467,"mean_anomaly_deg":292.6467,"bstar":3.8082e-5,"rev_number":20868,"period_min":95.437602053739,"perigee_km":538.80138737281,"apogee_km":540.689969344,"semimajor_km":6917.8826783584,"source":"CELESTRAK","updated_at":"2026-05-25T13:38:17.468664Z"}}